TimeCST,TemperatureF,Dew PointF,Humidity,Sea Level PressureIn,VisibilityMPH,Wind Direction,Wind SpeedMPH,Gust SpeedMPH,PrecipitationIn,Events,Conditions,WindDirDegrees,DateUTC
12:15 AM,42.8,41.0,93,30.16,7.0,NNE,4.6,-,N/A,,Clear,20,2012-11-20 06:15:00
12:35 AM,42.8,41.0,93,30.16,7.0,NNE,5.8,-,N/A,,Clear,30,2012-11-20 06:35:00
12:55 AM,42.8,39.2,87,30.15,7.0,Calm,Calm,-,N/A,,Clear,0,2012-11-20 06:55:00
1:15 AM,42.8,41.0,93,30.15,7.0,NNW,3.5,-,N/A,,Clear,330,2012-11-20 07:15:00
1:35 AM,42.8,41.0,93,30.16,7.0,NNW,4.6,-,N/A,,Clear,340,2012-11-20 07:35:00
1:55 AM,41.0,39.2,93,30.16,4.0,Calm,Calm,-,N/A,,Clear,0,2012-11-20 07:55:00
2:15 AM,42.8,39.2,87,30.17,5.0,NNW,4.6,-,N/A,,Clear,340,2012-11-20 08:15:00
2:35 AM,41.0,37.4,87,30.17,4.0,NW,3.5,-,N/A,,Clear,320,2012-11-20 08:35:00
6:15 AM,37.4,35.6,93,30.19,0.8,NNW,3.5,-,N/A,,Mist,330,2012-11-20 12:15:00
6:35 AM,37.4,35.6,93,30.19,3.0,Calm,Calm,-,N/A,,Clear,0,2012-11-20 12:35:00
7:15 AM,37.4,35.6,93,30.21,4.0,West,3.5,-,N/A,,Clear,270,2012-11-20 13:15:00
7:35 AM,37.4,35.6,93,30.22,4.0,Calm,Calm,-,N/A,,Clear,0,2012-11-20 13:35:00
7:55 AM,39.2,37.4,93,30.22,3.0,Calm,Calm,-,N/A,,Scattered Clouds,0,2012-11-20 13:55:00
8:15 AM,41.0,37.4,87,30.23,4.0,Calm,Calm,-,N/A,,Clear,0,2012-11-20 14:15:00
8:35 AM,42.8,41.0,93,30.24,5.0,Calm,Calm,-,N/A,,Clear,0,2012-11-20 14:35:00
8:55 AM,42.8,41.0,93,30.25,5.0,Calm,Calm,-,N/A,,Clear,0,2012-11-20 14:55:00
9:15 AM,46.4,42.8,87,30.25,7.0,Calm,Calm,-,N/A,,Clear,0,2012-11-20 15:15:00
9:55 AM,51.8,44.6,76,30.25,10.0,NW,3.5,-,N/A,,Clear,310,2012-11-20 15:55:00
10:15 AM,55.4,44.6,67,30.25,10.0,NW,3.5,-,N/A,,Clear,320,2012-11-20 16:15:00
10:55 AM,62.6,48.2,59,30.25,10.0,Calm,Calm,-,N/A,,Clear,0,2012-11-20 16:55:00
11:15 AM,64.4,48.2,56,30.25,10.0,Calm,Calm,-,N/A,,Clear,0,2012-11-20 17:15:00
11:35 AM,64.4,50.0,59,30.25,10.0,Calm,Calm,-,N/A,,Clear,0,2012-11-20 17:35:00
12:15 PM,69.8,46.4,43,30.22,10.0,ENE,4.6,-,N/A,,Clear,70,2012-11-20 18:15:00
12:35 PM,69.8,46.4,43,30.22,10.0,Calm,Calm,-,N/A,,Clear,0,2012-11-20 18:35:00
12:55 PM,71.6,44.6,38,30.21,10.0,ESE,6.9,-,N/A,,Clear,120,2012-11-20 18:55:00
1:15 PM,71.6,46.4,41,30.20,10.0,SSE,3.5,-,N/A,,Clear,150,2012-11-20 19:15:00
1:35 PM,71.6,44.6,38,30.19,10.0,SSE,3.5,-,N/A,,Clear,160,2012-11-20 19:35:00
1:55 PM,73.4,42.8,33,30.18,10.0,Calm,Calm,-,N/A,,Clear,0,2012-11-20 19:55:00
2:15 PM,73.4,41.0,31,30.18,10.0,SSE,5.8,-,N/A,,Clear,160,2012-11-20 20:15:00
2:35 PM,73.4,41.0,31,30.17,10.0,SE,3.5,-,N/A,,Clear,130,2012-11-20 20:35:00
2:55 PM,73.4,41.0,31,30.17,10.0,SSE,4.6,-,N/A,,Clear,160,2012-11-20 20:55:00
3:15 PM,71.6,39.2,31,30.16,10.0,SE,4.6,-,N/A,,Clear,140,2012-11-20 21:15:00
3:35 PM,73.4,41.0,31,30.16,10.0,Calm,Calm,-,N/A,,Clear,0,2012-11-20 21:35:00
3:55 PM,73.4,37.4,27,30.17,10.0,ESE,3.5,-,N/A,,Clear,120,2012-11-20 21:55:00
4:15 PM,73.4,41.0,31,30.17,10.0,SE,5.8,-,N/A,,Clear,130,2012-11-20 22:15:00
4:35 PM,71.6,37.4,29,30.17,10.0,SSE,5.8,-,N/A,,Clear,160,2012-11-20 22:35:00
4:55 PM,69.8,41.0,35,30.17,10.0,SE,5.8,-,N/A,,Clear,140,2012-11-20 22:55:00
5:15 PM,68.0,41.0,37,30.18,10.0,SSE,3.5,-,N/A,,Clear,160,2012-11-20 23:15:00
5:35 PM,68.0,42.8,40,30.18,10.0,ESE,4.6,-,N/A,,Clear,120,2012-11-20 23:35:00
5:55 PM,64.4,42.8,45,30.18,10.0,SE,4.6,-,N/A,,Clear,130,2012-11-20 23:55:00
6:15 PM,62.6,42.8,48,30.19,10.0,East,4.6,-,N/A,,Clear,100,2012-11-21 00:15:00
6:35 PM,60.8,44.6,55,30.19,10.0,East,5.8,-,N/A,,Clear,90,2012-11-21 00:35:00
6:55 PM,59.0,44.6,59,30.20,10.0,East,6.9,-,N/A,,Clear,90,2012-11-21 00:55:00
7:15 PM,57.2,44.6,63,30.20,10.0,East,8.1,-,N/A,,Clear,90,2012-11-21 01:15:00
7:35 PM,57.2,44.6,63,30.20,10.0,East,6.9,-,N/A,,Clear,100,2012-11-21 01:35:00
7:55 PM,57.2,44.6,63,30.21,10.0,ESE,8.1,-,N/A,,Clear,110,2012-11-21 01:55:00
8:15 PM,59.0,44.6,59,30.21,10.0,East,6.9,-,N/A,,Clear,100,2012-11-21 02:15:00
8:35 PM,57.2,44.6,63,30.22,10.0,ESE,5.8,-,N/A,,Clear,110,2012-11-21 02:35:00
8:55 PM,55.4,44.6,67,30.22,10.0,ESE,4.6,-,N/A,,Clear,120,2012-11-21 02:55:00
9:15 PM,55.4,44.6,67,30.22,10.0,SSE,5.8,-,N/A,,Clear,150,2012-11-21 03:15:00
9:35 PM,53.6,44.6,72,30.22,10.0,SSE,5.8,-,N/A,,Clear,150,2012-11-21 03:35:00
10:15 PM,53.6,44.6,72,30.22,10.0,SSW,8.1,-,N/A,,Clear,210,2012-11-21 04:15:00
10:35 PM,51.8,44.6,76,30.22,10.0,South,5.8,-,N/A,,Clear,170,2012-11-21 04:35:00
10:55 PM,50.0,44.6,82,30.22,10.0,South,5.8,-,N/A,,Clear,170,2012-11-21 04:55:00
11:15 PM,51.8,44.6,76,30.22,10.0,SSE,5.8,-,N/A,,Clear,160,2012-11-21 05:15:00
11:35 PM,51.8,44.6,76,30.22,10.0,SE,5.8,-,N/A,,Clear,140,2012-11-21 05:35:00
11:55 PM,51.8,44.6,76,30.21,10.0,SE,5.8,-,N/A,,Clear,130,2012-11-21 05:55:00